Location: Neuvy Saint Sepulchre
(46.5953°N, 1.8122°E)
Time: 09:41:11
(UTC+02:00)

ISS - Pass Details

Date: 28 March 2024
Orbit: 413 x 419 km, 51.6° (Epoch: 13 April)

Event Time Altitude Azimuth Distance (km) Brightness Sun altitude
Rises 19:49:04 0° 296° (WNW) 2,363 2.0 -6.3°
Reaches altitude 10° 19:51:11 10° 299° (WNW) 1,499 0.5 -6.6°
Maximum altitude 19:54:32 67° 22° (NNE) 459 -3.6 -7.2°
Enters shadow 19:57:50 10° 106° (ESE) 1,475 -1.7 -7.8°
